Погода в Агане

Россия / Ханты-Мансийский автономный округ - Югра     61°38′24″N   75°05′05″E
темп.,
°C
ветер,
м/с
пор.,
м/с
влажн.,
%
обл.,
%
осадки,
мм/ч
давл.,
гПа
погр.,
м
16 июня, ср
ср1623:00+18юз5985100 0.5 1004214
02:00+16зюз61187100 0.3 1004267
05:00+16зсз7108876 0.3 1005473
08:00+16сз797549 0.0 1006744
11:00+20ссз895845 0.0 10071307
14:00+18ссз7858100 0.0 10081383
17:00+19ссз774955 0.0 10081614
20:00+16ссз4852100 0.0 1008381
17 июня, чт
чт1723:00+15сз3455100 0.0 100975
02:00+13зсз3359100 0.0 100816
05:00+14зюз346471 0.0 1007147
08:00+19ююз33454 0.0 1006544
11:00+23ююз56350 0.0 10041443
14:00+26ююз67337 0.0 10021665
17:00+27ю673613 0.0 9991878
20:00+18зюз91582100 0.8 1000532
18 июня, пт
пт1823:00+17ююз2491100 2.6 998144
02:00+9ссз101292100 0.3 999345
05:00+6с101591100 2.5 1001541
08:00+6с111590100 5.1 1003732
11:00+7с101476100 5.4 1005911
14:00+12с11134770 0.0 10071535
17:00+13с11134292 0.0 10081925
20:00+11с81248100 0.0 1009894
19 июня, сб
сб1923:00+8с51159100 0.0 1010207
02:00+6ссз5116210 0.0 1011229
05:00+8с6115960 0.0 1012789
08:00+11с810485 0.0 10121498
11:00+13с674276 0.0 10121990
14:00+16ссз563888 0.0 10102225
17:00+16с453611 0.0 10092174
20:00+14св125110 0.0 100815
20 июня, вс
вс2023:00+10ююв33584 0.0 100718
02:00+8ююв47655 0.0 100583
05:00+10ююв596212 0.0 1003263
08:00+15ююв6745100 0.0 1002951
11:00+17ююв563878 0.0 10011794
14:00+19вюв443274 0.0 10012537
17:00+19св653216 0.0 10022390
20:00+16св69472 0.0 1005234